www.pogodaiklimat.ru

Погода и климат >> Архив погоды >> Украина >> Любашевка


ПОГОДА в Любашевке

  • Прогноз погоды в Любашевке
  • Монитор погоды в Любашевке

АРХИВ ПОГОДЫ в Любашевке

Время (UTC), дата Ветер
(напр.,м/с)
 
Видим.   Явления Облачность Т
(С)
Тd
(С)
f
(%)
Тe
(С)
Тes
(С)
Комфортность P
(гПа)
Po
(гПа)
Тmin
(С)
Tmax
(С)
R
(мм)
R24
(мм)
S
(см)
18 18.06 С 3 20 км {гроза, ливн. осадки} 8/0
[Ac trans Ci]
+23.2 +20.4 84 +30 +30 очень
душно
1014.7 993.8 +30.4 12
21 18.06 С 3 10 км 6/0
[Ac trans Ci]
+21.0 +18.4 85 +26 +26 душно 1015.7 994.6
00 19.06 С 3 10 км 8/8 600 м
[Sc]
+19.9 +17.6 87 +23 +23 комфорт 1015.4 994.2
03 19.06 С 1 10 км 3/1 1000 м
[Cu hum Ci fib]
+19.1 +16.9 87 +22 +22 комфорт 1015.5 994.3
06 19.06 СВ 3 20 км ясно +23.3 +17.9 72 +29 +36 душно 1015.4 994.5 +18.6
09 19.06 СВ 3 20 км 3/3 1000 м
[Cu hum]
+27.0 +16.9 54 +31 +41 душно 1015.0 994.3
12 19.06 СВ 5 20 км 4/4 1000 м
[Cu hum]
+28.5 +16.4 48 +32 +37 душно 1013.8 993.3
15 19.06 СВ 4 20 км 3/3 1000 м
[Cu hum]
+28.5 +15.3 45 +31 +33 душно 1013.0 992.5
18 19.06 С 2 20 км ясно +24.0 +18.2 70 +28 +28 душно 1012.9 992.1 +29.0 150
21 19.06 С 1 20 км ясно +21.2 +17.2 78 +25 +25 комфорт 1013.7 992.7
00 20.06 С 1 20 км 9/0
[Ac trans]
+20.0 +16.4 80 +24 +24 комфорт 1013.8 992.7
03 20.06 С 1 20 км ясно +18.8 +16.3 85 +21 +22 комфорт 1013.8 992.6
06 20.06 С 2 20 км 1/0
[Ci fib]
+24.1 +18.3 70 +29 +37 душно 1013.2 992.4 +18.2
09 20.06 СВ 3 20 км 1/1 1000 м
[Cu hum]
+28.9 +7.5 26 +28 +41 жарко 1012.5 991.9
12 20.06 В 3 20 км 5/5 600 м
[Cb cap]
+30.9 +8.0 24 +30 +36 жарко 1011.5 991.1
15 20.06 СВ 5 20 км 1/1 600 м
[Sc diur, vesp]
+31.1 +6.9 22 +30 +32 жарко 1011.0 990.6
18 20.06 В 2 20 км 8/1 600 м
[Sc diur, vesp Ci]
+26.4 +15.7 52 +30 +30 душно 1012.1 991.4 +31.6
21 20.06 СВ 2 20 км 1/0
[Ac trans]
+22.6 +14.2 59 +26 +26 жарко 1013.2 992.2
00 21.06 СВ 1 20 км ясно +20.1 +14.7 71 +24 +24 комфорт 1013.4 992.3
03 21.06 СВ 2 20 км 8/0
[Ac cast]
+19.8 +15.6 77 +23 +23 комфорт 1014.3 993.1
06 21.06 В 3 20 км ясно +26.0 +13.2 45 +28 +35 жарко 1014.1 993.4 +18.9
09 21.06 ЮВ 3 20 км 4/3 1000 м
[Cu med, cong Ci fib]
+30.5 +13.6 36 +32 +42 жарко 1013.9 993.5
12 21.06 В 3 20 км 6/6 1000 м
[Cu med, cong]
+31.9 +11.5 29 +32 +37 жарко 1013.1 992.8
15 21.06 В 3 20 км 3/3 1000 м
[Cu med, cong]
+31.9 +11.0 28 +32 +34 жарко 1012.6 992.3
18 21.06 В 1 20 км 8/0
[Ac trans]
+26.5 +13.6 45 +29 +29 жарко 1013.4 992.7 +32.6
21 21.06 штиль 0 20 км ясно +23.4 +14.5 57 +27 +27 душно 1014.4 993.5
00 22.06 штиль 0 20 км ясно +20.4 +11.6 57 +22 +22 комфорт 1014.8 993.6
03 22.06 штиль 0 20 км ясно +18.8 +12.6 67 +20 +20 1015.1 993.8
06 22.06 ЮВ 1 20 км 1/0
[Ac cast]
+27.9 +14.9 45 +30 +39 жарко 1014.9 994.3 +18.7
09 22.06 В 2 20 км 3/3 1000 м
[Cu hum Ac und]
+33.2 +11.7 27 +33 +45 жарко 1014.9 994.6
12 22.06 С 2 20 км 4/3 600 м
[Sc diur, vesp Ac trans Ci fib]
+32.5 +12.2 29 +33 +43 жарко 1014.2 993.9
15 22.06 С 3 20 км 8/6 600 м
[Cb calv Ac trans]
+32.5 +11.6 28 +33 +34 жарко 1013.2 992.9
18 22.06 СЗ 2 20 км гроза без осадков 9/8 600 м
[Cb calv Ac trans]
+27.8 +13.7 42 +30 +30 жарко 1014.0 993.4 +33.6
21 22.06 З 3 20 км {гроза} 9/9 600 м
[Sc]
+23.6 +16.1 63 +27 +27 жарко 1015.0 994.1
00 23.06 С 2 20 км {гроза} 3/3 600 м
[Sc]
+21.2 +16.0 72 +25 +25 комфорт 1014.4 993.3
03 23.06 штиль 0 20 км 3/3 600 м
[Sc]
+20.0 +15.8 77 +22 +23 комфорт 1015.6 994.4
06 23.06 Ю 3 20 км 1/1 600 м
[Sc diur, vesp]
+25.6 +16.2 56 +29 +35 душно 1015.5 994.7 +19.6
09 23.06 ЮЗ 2 20 км 8/1 600 м
[Cb calv Ac trans Ci fib]
+29.5 +16.0 44 +33 +42 душно 1014.6 994.1
12 23.06 В 3 20 км 6/3 1000 м
[Cu med, cong Ac trans]
+31.8 +13.2 32 +33 +39 жарко 1013.7 993.4
15 23.06 СЗ 1 20 км 8/1 600 м
[Cb calv Cs]
+29.0 +17.2 49 +33 +37 очень
душно
1013.1 992.6
18 23.06 штиль 0 20 км 9/5 600 м
[Sc diur, vesp Ac trans]
+23.8 +15.6 60 +27 +27 жарко 1014.1 993.2 +32.1
21 23.06 С 2 20 км 5/5 600 м
[Sc diur, vesp]
+22.0 +15.8 68 +26 +26 душно 1014.9 993.9
00 24.06 штиль 0 20 км 8/0
[Ac trans]
+18.6 +15.7 83 +19 +19 1015.4 994.1
03 24.06 штиль 0 20 км 10/10 600 м
[Sc]
+19.4 +16.1 81 +21 +21 комфорт 1015.7 994.5
06 24.06 С 5 20 км 5/0
[Ac lent Cc]
+25.7 +17.4 60 +30 +33 душно 1016.0 995.2 +18.2
09 24.06 СВ 6 20 км 9/0
[Ac As]
+27.0 +15.7 50 +30 +33 душно 1017.0 996.3
12 24.06 С 4 20 км 9/5 600 м
[Cb cap Ac As Ci ing]
+29.1 +15.6 44 +32 +35 душно 1016.9 996.3
15 24.06 З 2 16 км гроза без осадков {ливн. осадки} 10/3 600 м
[Cb cap Ac As]
+23.6 +20.1 81 +29 +30 душно 1017.3 996.4
18 24.06 С 1 12 км в посл. час гроза {ливн. осадки} 9/3 600 м
[Cb cap Ac As]
+21.2 +18.8 86 +26 +26 душно 1018.5 997.4 +30.8 2
21 24.06 С 4 20 км 1/0
[Ac trans]
+22.0 +18.6 81 +27 +27 душно 1019.0 997.9
00 25.06 С 4 10 км 1/0
[Ci fib]
+21.2 +18.0 82 +25 +25 комфорт 1019.1 998.0
03 25.06 С 5 10 км 10/0
[Cc]
+20.8 +18.0 84 +25 +25 комфорт 1019.9 998.7
06 25.06 С 5 20 км 8/0
[Ci]
+24.6 +19.2 72 +30 +33 очень
душно
1020.7 999.8 +20.5
09 25.06 СВ 7 20 км 3/3 1000 м
[Cu hum Ci fib]
+28.7 +20.9 63 +36 +39 очень
душно
1021.0 1000.4
12 25.06 С 8 20 км 8/8 600 м
[Cb calv]
+30.2 +17.6 47 +34 +35 очень
душно
1021.3 1000.7
15 25.06 С 7 20 км 3/3 600 м
[Sc diur, vesp]
+29.4 +15.8 44 +32 +33 душно 1021.3 1000.7

 

Местоположение метеостанции Любашевка (Одесская область, Украина): широта 47.85 долгота 30.27 высота над уровнем моря 183 м.

В архиве по умолчанию представлена погода в Любашевке за последнюю неделю. Архивные данные за месяц целиком и за предыдущие месяцы, начиная с января 2011 года, Вы можете получить, выбрав интересующий диапазон дат из раскрывающегося списка и нажав кнопку "Ввод!".


*Определитесь, кто Вы:
робот инопланетянин человек

Внимание! Время в таблицах - всемирное. Для получения местного времени необходимо прибавить поправку, которая равна 2 ч.

Смотрите также архив погоды в соседних городах и на ближайших метеорологических станциях:

Погода в Первомайске (Николаевская область, Украина) (49 км)
Погода в Гайвороне (Кировоградская область, Украина) (63 км)
Погода в Затишье (Одесская область, Украина) (65 км)
Погода в Вознесенске (Николаевская область, Украина) (85 км)
Погода в Рыбнице (Молдова) (94 км)
Погода в Помошной (Кировоградская область, Украина) (94 км)
Погода в Сербке (Одесская область, Украина) (99 км)
Погода в Умани (Черкасская область, Украина) (102 км)
Погода в Раздельной (Одесская область, Украина) (112 км)
Погода в Дубоссарах (Молдова) (114 км)

Пояснения к столбцам:

Ветер - указаны скорость ветра в м/с - средняя за 10 мин, порывы в срок и между сроками (в фигурных скобках) и направление, откуда дует ветер: С - северный, СВ - северо-восточный, В - восточный, ЮВ - юго-восточный, Ю - южный, ЮЗ - юго-западный, З - западный, СЗ - северо-западный.
Видимость - горизонтальная дальность видимости в метрах или километрах. При видимости от 1 до 10 км при отсутствии осадков обычно наблюдается дымка, при ухудшении видимости до 1 км и менее - туман. В сухую погоду видимость может ухудшаться дымом, пылью или мглою.
Явления - указаны атмосферные явления, наблюдавшиеся в срок или в последний час перед сроком; фигурными скобками обозначены явления, наблюдавшиеся между сроками (за 1-3 часа до срока); квадратными скобками обозначены град или гололедные отложения с указанием их диаметра в мм.
Облачность - указаны через наклонную черту общая и нижняя облачность в баллах и высота нижней границы облаков в метрах; квадратными скобками обозначены формы облаков: Ci - перистые, Cs - перисто-слоистые, Cc - перисто-кучевые, Ac - высококучевые, As - высокослоистые, Sc - слоисто-кучевые, Ns - слоисто-дождевые, Cu - кучевые, Cb - кучево-дождевые. Подробнее классификацию облаков см. в Атласе облаков (PDF).
T - Температура воздуха - температура, измеренная на высоте 2 м над землей.
Td - Температура точки росы - температура, при понижении до которой содержащийся в воздухе водяной пар достигнет насыщения.
f - Относительная влажность воздуха - влажноcть воздуха, измеренная на высоте 2 м над землей.
Te - Эффективная температура - температура, которую ощущает одетый по сезону человек в тени. Характеристика душности погоды. При расчете учитывается влияние влажности воздуха и скорости ветра на теплоощущения человека.
Tes - Эффективная температура на солнце - температура, которую ощущает человек, с поправкой на солнечный нагрев. Характеристика знойности погоды. Зависит от высоты солнца над горизонтом, облачности и скорости ветра. Ночью, в пасмурную погоду, а также при ветре 12 м/с и более поправка равна нулю.
P - Атмосферное давление - приведенное к уровню моря атмосферное давление.
Po - Атмосферное давление - измеренное на уровне метеостанции атмосферное давление.
Tmin - Минимальная температура - минимум температуры воздуха на высоте 2 м над землей.
Tmax - Максимальная температура - максимум температуры воздуха на высоте 2 м над землей.
R - Количество осадков - Количество выпавших осадков за период времени, мм. При наведении курсора мыши на число - период времени, за который выпало указанное количество осадков.
R24 - Количество осадков - Количество выпавших осадков за 24 часа, мм.
S - Снежный покров - Высота снежного покрова, см. При наведении курсора мыши на число - состояние снежного покрова и степень покрытия местности в баллах.